IZ5MMH-4 Weather Reports


time (UTC)temp
C
wind
direction
speed
KPH
gust
KPH
rain 1hr
cm
rain 24hr
cm
rain mn
cm
humidity
%
barometer
mb
20260503181439 21 0.0 0.0 0.00 0.00 0.00 55 1020.4
20260503180439 21 0.0 0.0 0.00 0.00 0.00 53 1020.2
20260503175439 21 0.0 0.0 0.00 0.00 0.00 53 1020.1
20260503174438 22 0.0 0.0 0.00 0.00 0.00 51 1020.0
20260503173438 22 0.0 0.0 0.00 0.00 0.00 51 1020.0
20260503172438 22 0.0 0.0 0.00 0.00 0.00 50 1020.1
20260503171439 22 0.0 0.0 0.00 0.00 0.00 49 1020.0
20260503170439 22 0.0 0.0 0.00 0.00 0.00 49 1020.1
20260503150438 24 0.0 0.0 0.00 0.00 0.00 38 1020.3
20260503130439 23 0.0 0.0 0.00 0.00 0.00 50 1021.8
20260503110439 22 0.0 0.0 0.00 0.00 0.00 49 1022.3
20260503090438 20 0.0 0.0 0.00 0.00 0.00 50 1022.7
20260503081438 20 0.0 0.0 0.00 0.00 0.00 50 1022.2
20260503080439 19 0.0 0.0 0.00 0.00 0.00 47 1022.3
20260503072438 18 0.0 0.0 0.00 0.00 0.00 54 1022.3
20260503071439 18 0.0 0.0 0.00 0.00 0.00 59 1022.4
20260503070438 18 0.0 0.0 0.00 0.00 0.00 57 1022.5
20260503054438 16 0.0 0.0 0.00 0.00 0.00 60 1022.9
20260503053438 16 0.0 0.0 0.00 0.00 0.00 58 1022.8
20260503052439 16 0.0 0.0 0.00 0.00 0.00 56 1022.9
20260503051438 16 0.0 0.0 0.00 0.00 0.00 55 1022.9
20260503050438 15 0.0 0.0 0.00 0.00 0.00 55 1022.9
20260503045439 15 0.0 0.0 0.00 0.00 0.00 56 1022.8
20260503044438 15 0.0 0.0 0.00 0.00 0.00 55 1022.8
20260503043439 15 0.0 0.0 0.00 0.00 0.00 57 1022.8
20260503042440 15 0.0 0.0 0.00 0.00 0.00 58 1022.8
20260503041438 15 0.0 0.0 0.00 0.00 0.00 59 1022.7
20260503040439 15 0.0 0.0 0.00 0.00 0.00 60 1022.7
20260503035439 15 0.0 0.0 0.00 0.00 0.00 60 1022.5
20260503034438 15 0.0 0.0 0.00 0.00 0.00 60 1022.6
20260503033438 15 0.0 0.0 0.00 0.00 0.00 60 1022.6
20260503032438 15 0.0 0.0 0.00 0.00 0.00 62 1022.5
20260503031439 15 0.0 0.0 0.00 0.00 0.00 64 1022.4
20260503030438 16 0.0 0.0 0.00 0.00 0.00 65 1022.5
20260503025438 16 0.0 0.0 0.00 0.00 0.00 67 1022.5
20260503024439 16 0.0 0.0 0.00 0.00 0.00 68 1022.5
20260503023439 16 0.0 0.0 0.00 0.00 0.00 69 1022.5
20260503022438 16 0.0 0.0 0.00 0.00 0.00 70 1022.5
20260503021438 16 0.0 0.0 0.00 0.00 0.00 70 1022.5
20260503020438 16 0.0 0.0 0.00 0.00 0.00 70 1022.4
20260503015438 16 0.0 0.0 0.00 0.00 0.00 70 1022.5
20260503014438 16 0.0 0.0 0.00 0.00 0.00 70 1022.6
20260503013438 16 0.0 0.0 0.00 0.00 0.00 70 1022.6
20260503012438 16 0.0 0.0 0.00 0.00 0.00 70 1022.7
20260503011438 16 0.0 0.0 0.00 0.00 0.00 69 1022.9
20260503010438 16 0.0 0.0 0.00 0.00 0.00 70 1022.8
20260503005439 16 0.0 0.0 0.00 0.00 0.00 68 1022.8
20260503004438 16 0.0 0.0 0.00 0.00 0.00 66 1023.0
20260503003439 16 0.0 0.0 0.00 0.00 0.00 67 1022.9
20260503002438 17 0.0 0.0 0.00 0.00 0.00 66 1023.2
20260503001438 17 0.0 0.0 0.00 0.00 0.00 67 1023.3
20260503000438 17 0.0 0.0 0.00 0.00 0.00 68 1023.3
20260502235438 17 0.0 0.0 0.00 0.00 0.00 68 1023.4
20260502234438 17 0.0 0.0 0.00 0.00 0.00 66 1023.4
20260502233438 17 0.0 0.0 0.00 0.00 0.00 65 1023.4
20260502232438 17 0.0 0.0 0.00 0.00 0.00 63 1023.4
20260502231438 17 0.0 0.0 0.00 0.00 0.00 61 1023.5
20260502230439 17 0.0 0.0 0.00 0.00 0.00 61 1023.6
20260502225438 17 0.0 0.0 0.00 0.00 0.00 62 1023.6
20260502224439 17 0.0 0.0 0.00 0.00 0.00 64 1023.7
20260502223438 17 0.0 0.0 0.00 0.00 0.00 65 1023.8
20260502222438 17 0.0 0.0 0.00 0.00 0.00 64 1023.8
20260502221439 17 0.0 0.0 0.00 0.00 0.00 63 1023.7
20260502220438 18 0.0 0.0 0.00 0.00 0.00 64 1023.7
20260502215438 18 0.0 0.0 0.00 0.00 0.00 63 1023.6
20260502214438 18 0.0 0.0 0.00 0.00 0.00 64 1023.5
20260502213439 18 0.0 0.0 0.00 0.00 0.00 63 1023.4
20260502212438 18 0.0 0.0 0.00 0.00 0.00 60 1023.4
20260502211438 18 0.0 0.0 0.00 0.00 0.00 56 1023.4
20260502210439 18 0.0 0.0 0.00 0.00 0.00 56 1023.4
20260502205439 18 0.0 0.0 0.00 0.00 0.00 55 1023.3
20260502204438 18 0.0 0.0 0.00 0.00 0.00 52 1023.3
20260502203438 18 0.0 0.0 0.00 0.00 0.00 53 1023.5
20260502202438 18 0.0 0.0 0.00 0.00 0.00 53 1023.6
20260502201439 18 0.0 0.0 0.00 0.00 0.00 52 1023.6
20260502200438 18 0.0 0.0 0.00 0.00 0.00 52 1023.6
20260502195438 18 0.0 0.0 0.00 0.00 0.00 49 1023.7
20260502194439 18 0.0 0.0 0.00 0.00 0.00 47 1023.6
20260502193439 19 0.0 0.0 0.00 0.00 0.00 46 1023.6
20260502192439 19 0.0 0.0 0.00 0.00 0.00 46 1023.6
20260502191438 19 0.0 0.0 0.00 0.00 0.00 46 1023.6
20260502190439 19 0.0 0.0 0.00 0.00 0.00 48 1023.5
20260502185439 20 0.0 0.0 0.00 0.00 0.00 49 1023.5
20260502184438 20 0.0 0.0 0.00 0.00 0.00 50 1023.4
20260502183439 20 0.0 0.0 0.00 0.00 0.00 51 1023.3
20260502182439 20 0.0 0.0 0.00 0.00 0.00 51 1023.1